13:53
Airports
History
Links
Donate
Help keep this website running!
PayPal
Bitcoin
Information on this page is community maintained and may be outdated or inaccurate and is intended for reference only or PC simulator navigating.
Always use approved charts for navigating.
VT49
Angus Airways
Angus Airways (VT49)
Moretown, Vermont, United States (5660)
4
Lat/Lng:44° 13' 48.21" N / 72° 47' 28.42" W
44.230059 / -72.791227
Elevation:670'ft 204mMSL
ID / ICAO:VT49
Runways:1
Longest:(09-27) 450.6m 1,478ft Grass
Distance To
Airport ID:
Nearby VORs <50NM
Nearby NDBs
Nearby WeatherUpdated 06-23-17 13:51 GMT
Nearby weather at KMPV, Edward F Knapp State located 11.5 nautical miles from VT49
Altimeter: 29.80
Visibility: 10.0 statute miles
Wind: 0 knots (000°)
Temp: 17°c 63°f
Humidity: 100.0%

METAR: KMPV 231351Z AUTO 00000KT 10SM 17/17 A2980 RMK AO2 RAB27E46 SLP090 P0009 T01720172 $

(Powered by phpweather)
Runway 09 / 27
Dimensions:450.6 x 15.2m 1478' x 50'ft
Surface:Grass
Runway 09 [A]Runway 27 [B]
Heading:074°TH 254°TH
Lat:
Lng:
44° 13' 46.17"N
72° 47' 38.35"W
44° 13' 50.25"N
72° 47' 18.48"W
User Notes and Comments
Google Map
Nearby Airports
(R) Mad River Fly-in 0.3 NM
VT29 SW 219°
(R) Ketcham Lndg Area 5.1 NM
VT30 SSW 204°
(U) Warren-sugarbush 8.0 NM
0B7 SSW 192°
(R) Teal Farm 8.1 NM
VT01 WNW 296°
(U) Edward F Knapp State 11.5 NM
KMPV (WX) E 99°
4 Maules Roost 13.6 NM
VT03 SW 223°
(R) Carriers Skypark 19.1 NM
VT31 ESE 115°
VFR Chart
Flight Planning at SkyVector.com